EZS78JM LSGG-LFRS

Flight info

Callsign EZS78JM
Flight time 1h 8m
Altitude 28000
Route DEPUL1A/22 DEPUL T544 LSE DCT RUSIT DCT MEBAK DCT BELEP DCT TIS/N0417F290 DCT LMG/N0406F280 DCT MANAK
Aircraft A320/M-SDE3FGHIRWY/LB1

Departure

Time 2026-05-06 16:34
Airport Geneva International Airport (LSGG)

Arrival

Time 2026-05-06 17:42
Airport Nantes Atlantique Airport (LFRS)
Time Latitude Longitude Altitude Speed Heading
2026-05-06 16:09 46.23224 6.10498 1403 ft 0 kts 270°
2026-05-06 16:29 46.23224 6.10491 1400 ft 4 kts 270°
2026-05-06 16:29 46.23235 6.10440 1400 ft 6 kts 341°
2026-05-06 16:29 46.23311 6.10512 1397 ft 20 kts 43°
2026-05-06 16:29 46.23419 6.10662 1397 ft 25 kts 41°
2026-05-06 16:30 46.23549 6.10850 1389 ft 30 kts 45°
2026-05-06 16:30 46.23646 6.10990 1386 ft 29 kts 44°
2026-05-06 16:30 46.23825 6.11255 1378 ft 32 kts 45°
2026-05-06 16:30 46.23966 6.11462 1373 ft 28 kts 45°
2026-05-06 16:31 46.24100 6.11657 1368 ft 20 kts 44°
2026-05-06 16:31 46.24228 6.11845 1362 ft 32 kts 45°
2026-05-06 16:31 46.24353 6.12029 1365 ft 25 kts 45°
2026-05-06 16:31 46.24478 6.12214 1372 ft 27 kts 45°
2026-05-06 16:32 46.24611 6.12409 1369 ft 32 kts 45°
2026-05-06 16:32 46.24745 6.12605 1362 ft 23 kts 45°
2026-05-06 16:32 46.24888 6.12707 1365 ft 24 kts 17°
2026-05-06 16:32 46.24989 6.12671 1371 ft 18 kts 281°
2026-05-06 16:33 46.24902 6.12506 1372 ft 26 kts 225°
2026-05-06 16:33 46.24692 6.12196 1372 ft 75 kts 226°
2026-05-06 16:33 46.24181 6.11442 1374 ft 135 kts 226°
2026-05-06 16:34 46.22663 6.09245 2368 ft 151 kts 227°
2026-05-06 16:34 46.21918 6.08140 2885 ft 161 kts 227°
2026-05-06 16:34 46.21078 6.06896 3223 ft 184 kts 226°
2026-05-06 16:34 46.20129 6.05496 3548 ft 207 kts 226°
2026-05-06 16:35 46.19055 6.03918 3908 ft 232 kts 226°
2026-05-06 16:35 46.17863 6.02174 4356 ft 255 kts 226°
2026-05-06 16:35 46.16584 6.00311 5092 ft 265 kts 226°
2026-05-06 16:35 46.15279 5.98399 5977 ft 269 kts 226°
2026-05-06 16:36 46.13968 5.96443 6867 ft 273 kts 227°
2026-05-06 16:36 46.12774 5.94290 7731 ft 276 kts 235°
2026-05-06 16:36 46.11687 5.91987 8570 ft 280 kts 237°
2026-05-06 16:36 46.10627 5.89599 9114 ft 283 kts 238°
2026-05-06 16:37 46.09574 5.87195 9689 ft 285 kts 238°
2026-05-06 16:37 46.08503 5.84775 10268 ft 290 kts 238°
2026-05-06 16:37 46.07385 5.82285 10859 ft 302 kts 237°
2026-05-06 16:37 46.06229 5.79738 11430 ft 313 kts 237°
2026-05-06 16:38 46.05010 5.77067 12013 ft 324 kts 237°
2026-05-06 16:38 46.03752 5.74321 12593 ft 333 kts 237°
2026-05-06 16:38 46.02455 5.71501 13175 ft 342 kts 237°
2026-05-06 16:38 46.01124 5.68621 13756 ft 348 kts 237°
2026-05-06 16:39 45.99776 5.65706 14345 ft 352 kts 237°
2026-05-06 16:39 45.98414 5.62758 14995 ft 357 kts 237°
2026-05-06 16:39 45.97033 5.59772 15654 ft 360 kts 237°
2026-05-06 16:39 45.95660 5.56745 16310 ft 363 kts 238°
2026-05-06 16:40 45.94301 5.53671 16938 ft 366 kts 238°
2026-05-06 16:40 45.92942 5.50554 17564 ft 369 kts 238°
2026-05-06 16:40 45.91577 5.47413 18173 ft 372 kts 238°
2026-05-06 16:40 45.90201 5.44252 18758 ft 375 kts 238°
2026-05-06 16:41 45.88802 5.41062 19318 ft 379 kts 238°
2026-05-06 16:41 45.87383 5.37856 19901 ft 382 kts 238°
2026-05-06 16:41 45.85948 5.34627 20482 ft 385 kts 238°
2026-05-06 16:41 45.84505 5.31386 21041 ft 387 kts 238°
2026-05-06 16:42 45.83046 5.28109 21582 ft 390 kts 238°
2026-05-06 16:42 45.81578 5.24810 22106 ft 394 kts 238°
2026-05-06 16:42 45.80121 5.21535 22611 ft 396 kts 238°
2026-05-06 16:42 45.78633 5.18193 23103 ft 399 kts 238°
2026-05-06 16:43 45.77131 5.14828 23575 ft 402 kts 238°
2026-05-06 16:43 45.75616 5.11442 24031 ft 405 kts 238°
2026-05-06 16:43 45.74100 5.08024 24474 ft 408 kts 239°
2026-05-06 16:43 45.72654 5.04515 24900 ft 411 kts 240°
2026-05-06 16:44 45.71266 5.00930 25312 ft 413 kts 242°
2026-05-06 16:44 45.69901 4.97293 25711 ft 416 kts 242°
2026-05-06 16:44 45.68715 4.93514 26087 ft 418 kts 252°
2026-05-06 16:44 45.68016 4.89476 26455 ft 420 kts 262°
2026-05-06 16:45 45.67812 4.85300 26816 ft 423 kts 271°
2026-05-06 16:45 45.68141 4.81119 27170 ft 425 kts 282°
2026-05-06 16:45 45.68818 4.76992 27512 ft 427 kts 283°
2026-05-06 16:45 45.69505 4.72841 27845 ft 430 kts 283°
2026-05-06 16:46 45.70191 4.68663 27983 ft 431 kts 283°
2026-05-06 16:46 45.71555 4.60301 28010 ft 432 kts 283°
2026-05-06 16:47 45.72924 4.51919 28010 ft 433 kts 283°
2026-05-06 16:47 45.74289 4.43537 28013 ft 432 kts 283°
2026-05-06 16:48 45.75653 4.35151 28007 ft 432 kts 283°
2026-05-06 16:48 45.77002 4.26765 28007 ft 432 kts 283°
2026-05-06 16:49 45.78338 4.18393 28012 ft 431 kts 283°
2026-05-06 16:49 45.79661 4.10075 28013 ft 431 kts 283°
2026-05-06 16:50 45.80985 4.01698 28009 ft 431 kts 282°
2026-05-06 16:50 45.82307 3.93312 28007 ft 432 kts 282°
2026-05-06 16:51 45.83625 3.84897 28010 ft 433 kts 282°
2026-05-06 16:51 45.84931 3.76475 28009 ft 433 kts 282°
2026-05-06 16:52 45.86231 3.68039 28009 ft 433 kts 282°
2026-05-06 16:52 45.87531 3.59599 28007 ft 432 kts 282°
2026-05-06 16:53 45.88129 3.51051 28008 ft 431 kts 268°
2026-05-06 16:53 45.87984 3.42455 28008 ft 430 kts 268°
2026-05-06 16:54 45.87836 3.33863 28012 ft 430 kts 268°
2026-05-06 16:54 45.87688 3.25280 28008 ft 430 kts 269°
2026-05-06 16:55 45.87539 3.16696 28008 ft 430 kts 268°
2026-05-06 16:55 45.87376 3.08114 28011 ft 430 kts 268°
2026-05-06 16:56 45.87211 2.99571 28008 ft 432 kts 268°
2026-05-06 16:56 45.87036 2.90935 28008 ft 434 kts 268°
2026-05-06 16:57 45.86856 2.82287 28011 ft 433 kts 268°
2026-05-06 16:57 45.86669 2.73641 28008 ft 433 kts 268°
2026-05-06 16:58 45.86476 2.65014 28007 ft 432 kts 268°
2026-05-06 16:58 45.86268 2.56391 28014 ft 432 kts 268°
2026-05-06 16:59 45.86054 2.47761 28009 ft 432 kts 268°
2026-05-06 16:59 45.85840 2.39132 28010 ft 433 kts 268°
2026-05-06 17:00 45.85660 2.31951 28014 ft 433 kts 268°
2026-05-06 17:00 45.85401 2.21939 28010 ft 432 kts 268°
2026-05-06 17:01 45.85168 2.13312 28007 ft 432 kts 268°
2026-05-06 17:01 45.84974 2.06138 28010 ft 432 kts 268°
2026-05-06 17:02 45.84727 1.97514 28008 ft 432 kts 268°
2026-05-06 17:02 45.84470 1.88876 28013 ft 432 kts 268°
2026-05-06 17:03 45.84214 1.80321 28008 ft 432 kts 267°
2026-05-06 17:03 45.83947 1.71719 28008 ft 431 kts 267°
2026-05-06 17:04 45.83677 1.63135 28011 ft 431 kts 267°
2026-05-06 17:04 45.83399 1.54538 28008 ft 431 kts 267°
2026-05-06 17:05 45.83116 1.45948 28007 ft 430 kts 267°
2026-05-06 17:05 45.82836 1.37441 28008 ft 430 kts 267°
2026-05-06 17:06 45.82545 1.28877 28008 ft 430 kts 267°
2026-05-06 17:06 45.82245 1.20323 28008 ft 430 kts 267°
2026-05-06 17:07 45.81931 1.11759 28008 ft 430 kts 267°
2026-05-06 17:07 45.81816 1.03203 28007 ft 430 kts 276°
2026-05-06 17:08 45.83213 0.94879 28007 ft 430 kts 287°
2026-05-06 17:08 45.84959 0.86674 28012 ft 430 kts 287°
2026-05-06 17:09 45.86677 0.78461 28006 ft 429 kts 286°
2026-05-06 17:09 45.88388 0.70251 28014 ft 429 kts 286°
2026-05-06 17:10 45.90101 0.62048 28011 ft 429 kts 286°
2026-05-06 17:10 45.91801 0.53897 28010 ft 429 kts 286°
2026-05-06 17:11 45.93503 0.45669 28008 ft 429 kts 286°
2026-05-06 17:11 45.95188 0.37444 28008 ft 429 kts 286°
2026-05-06 17:12 45.96869 0.29214 28010 ft 429 kts 286°
2026-05-06 17:12 45.98548 0.20993 28009 ft 429 kts 286°
2026-05-06 17:13 46.00223 0.12763 28010 ft 429 kts 286°
2026-05-06 17:13 46.01889 0.04528 28013 ft 429 kts 286°
2026-05-06 17:14 46.03549 -0.03705 28011 ft 428 kts 286°
2026-05-06 17:14 46.05208 -0.11943 28008 ft 428 kts 286°
2026-05-06 17:15 46.06855 -0.20191 28002 ft 428 kts 286°
2026-05-06 17:15 46.08495 -0.28449 28007 ft 428 kts 285°
2026-05-06 17:16 46.10130 -0.36699 28009 ft 428 kts 285°
2026-05-06 17:16 46.11764 -0.44951 28007 ft 428 kts 285°
2026-05-06 17:17 46.13379 -0.53157 28010 ft 428 kts 285°
2026-05-06 17:17 46.14996 -0.61427 28001 ft 428 kts 285°
2026-05-06 17:18 46.16604 -0.69694 28013 ft 428 kts 285°
2026-05-06 17:18 46.18207 -0.77963 28006 ft 428 kts 285°
2026-05-06 17:19 46.19809 -0.86236 28009 ft 428 kts 285°
2026-05-06 17:19 46.22027 -0.94153 28008 ft 428 kts 305°
2026-05-06 17:19 46.24029 -0.97317 28014 ft 428 kts 320°
2026-05-06 17:20 46.26320 -0.99983 27764 ft 419 kts 321°
2026-05-06 17:20 46.28576 -1.02583 27066 ft 419 kts 321°
2026-05-06 17:20 46.30851 -1.05204 26455 ft 416 kts 321°
2026-05-06 17:20 46.33107 -1.07806 25875 ft 413 kts 321°
2026-05-06 17:21 46.35340 -1.10391 25308 ft 409 kts 321°
2026-05-06 17:21 46.37557 -1.12959 24748 ft 406 kts 321°
2026-05-06 17:21 46.39749 -1.15506 24193 ft 402 kts 321°
2026-05-06 17:21 46.41924 -1.18040 23652 ft 399 kts 321°
2026-05-06 17:22 46.44079 -1.20556 23120 ft 396 kts 321°
2026-05-06 17:22 46.46215 -1.23051 22607 ft 393 kts 321°
2026-05-06 17:22 46.48337 -1.25532 22110 ft 390 kts 321°
2026-05-06 17:22 46.50440 -1.27993 21629 ft 387 kts 320°
2026-05-06 17:23 46.52525 -1.30439 21124 ft 384 kts 320°
2026-05-06 17:23 46.54595 -1.32869 20634 ft 381 kts 320°
2026-05-06 17:23 46.56657 -1.35288 20148 ft 379 kts 320°
2026-05-06 17:23 46.58710 -1.37664 19659 ft 376 kts 324°
2026-05-06 17:24 46.60977 -1.39426 19194 ft 373 kts 340°
2026-05-06 17:24 46.63470 -1.40454 18694 ft 371 kts 345°
2026-05-06 17:24 46.65959 -1.41405 18202 ft 369 kts 345°
2026-05-06 17:24 46.68418 -1.42343 17977 ft 359 kts 345°
2026-05-06 17:25 46.70758 -1.43413 17849 ft 346 kts 334°
2026-05-06 17:25 46.72782 -1.45253 17385 ft 344 kts 321°
2026-05-06 17:25 46.74793 -1.47137 16784 ft 347 kts 339°
2026-05-06 17:25 46.77174 -1.47655 16100 ft 353 kts
2026-05-06 17:26 46.79547 -1.46574 15139 ft 366 kts 31°
2026-05-06 17:26 46.81426 -1.44007 14154 ft 378 kts 56°
2026-05-06 17:26 46.82438 -1.40432 13131 ft 388 kts 78°
2026-05-06 17:26 46.82651 -1.36470 12085 ft 396 kts 94°
2026-05-06 17:27 46.82071 -1.32523 11020 ft 402 kts 112°
2026-05-06 17:27 46.80517 -1.29137 9968 ft 406 kts 137°
2026-05-06 17:27 46.78301 -1.26658 9243 ft 399 kts 146°
2026-05-06 17:27 46.76002 -1.24436 8491 ft 393 kts 148°
2026-05-06 17:28 46.73694 -1.22347 7683 ft 388 kts 149°
2026-05-06 17:28 46.71393 -1.20357 7179 ft 376 kts 154°
2026-05-06 17:28 46.68979 -1.19286 7000 ft 354 kts 174°
2026-05-06 17:28 46.66615 -1.19462 6994 ft 329 kts 193°
2026-05-06 17:29 46.64559 -1.20611 6961 ft 308 kts 210°
2026-05-06 17:29 46.62945 -1.22523 6937 ft 288 kts 229°
2026-05-06 17:29 46.61875 -1.24841 6994 ft 267 kts 245°
2026-05-06 17:29 46.61309 -1.27305 7008 ft 249 kts 260°
2026-05-06 17:30 46.61190 -1.29723 7007 ft 232 kts 274°
2026-05-06 17:30 46.61451 -1.32012 7011 ft 229 kts 287°
2026-05-06 17:30 46.62063 -1.34140 7012 ft 229 kts 300°
2026-05-06 17:30 46.62984 -1.35986 7009 ft 229 kts 313°
2026-05-06 17:31 46.64186 -1.37510 7011 ft 230 kts 323°
2026-05-06 17:31 46.65471 -1.38899 6990 ft 231 kts 322°
2026-05-06 17:31 46.66757 -1.40292 6804 ft 228 kts 322°
2026-05-06 17:31 46.68034 -1.41675 6746 ft 229 kts 322°
2026-05-06 17:32 46.69309 -1.43059 6695 ft 229 kts 322°
2026-05-06 17:32 46.70584 -1.44448 6645 ft 229 kts 322°
2026-05-06 17:32 46.71857 -1.45837 6596 ft 229 kts 322°
2026-05-06 17:32 46.73130 -1.47228 6543 ft 229 kts 322°
2026-05-06 17:33 46.74401 -1.48620 6493 ft 228 kts 322°
2026-05-06 17:33 46.75663 -1.50026 6443 ft 228 kts 321°
2026-05-06 17:33 46.76893 -1.51482 6392 ft 228 kts 320°
2026-05-06 17:33 46.78133 -1.52926 6342 ft 228 kts 321°
2026-05-06 17:34 46.79302 -1.54467 6345 ft 227 kts 311°
2026-05-06 17:34 46.80440 -1.56065 6292 ft 227 kts 319°
2026-05-06 17:34 46.81686 -1.57496 6188 ft 229 kts 322°
2026-05-06 17:34 46.82964 -1.58848 6035 ft 225 kts 324°
2026-05-06 17:35 46.84246 -1.60170 5982 ft 226 kts 324°
2026-05-06 17:35 46.85535 -1.61497 5868 ft 227 kts 324°
2026-05-06 17:35 46.86806 -1.62807 5619 ft 225 kts 324°
2026-05-06 17:36 46.89350 -1.65449 5035 ft 223 kts 323°
2026-05-06 17:36 46.90608 -1.66764 4749 ft 222 kts 323°
2026-05-06 17:36 46.91863 -1.68077 4446 ft 221 kts 323°
2026-05-06 17:36 46.93111 -1.69380 4138 ft 218 kts 323°
2026-05-06 17:37 46.94322 -1.70647 3843 ft 210 kts 323°
2026-05-06 17:37 46.95484 -1.71865 3564 ft 201 kts 323°
2026-05-06 17:37 46.96611 -1.73030 3296 ft 196 kts 328°
2026-05-06 17:37 46.97892 -1.73630 3084 ft 195 kts 357°
2026-05-06 17:38 46.99207 -1.73256 3060 ft 188 kts 25°
2026-05-06 17:38 47.00326 -1.72431 3023 ft 174 kts 26°
2026-05-06 17:38 47.01381 -1.71644 2851 ft 167 kts 26°
2026-05-06 17:38 47.02381 -1.70891 2636 ft 160 kts 26°
2026-05-06 17:39 47.03363 -1.70149 2448 ft 157 kts 26°
2026-05-06 17:39 47.04333 -1.69415 2247 ft 157 kts 26°
2026-05-06 17:39 47.05293 -1.68688 2048 ft 154 kts 26°
2026-05-06 17:39 47.06226 -1.67980 1841 ft 148 kts 26°
2026-05-06 17:40 47.07134 -1.67292 1647 ft 146 kts 26°
2026-05-06 17:40 47.08026 -1.66615 1482 ft 143 kts 26°
2026-05-06 17:40 47.08906 -1.65948 1277 ft 142 kts 26°
2026-05-06 17:40 47.09776 -1.65287 1083 ft 140 kts 26°
2026-05-06 17:41 47.10646 -1.64627 895 ft 140 kts 26°
2026-05-06 17:41 47.11512 -1.63970 713 ft 140 kts 26°
2026-05-06 17:41 47.12378 -1.63322 532 ft 140 kts 26°
2026-05-06 17:41 47.13236 -1.62657 315 ft 139 kts 27°
2026-05-06 17:42 47.14091 -1.62000 151 ft 138 kts 27°
2026-05-06 17:42 47.14919 -1.61368 87 ft 124 kts 26°
2026-05-06 17:42 47.15402 -1.61008 89 ft 62 kts 27°
2026-05-06 17:42 47.15663 -1.60794 85 ft 18 kts 57°
2026-05-06 17:43 47.15649 -1.60673 89 ft 9 kts 120°
2026-05-06 17:43 47.15629 -1.60615 91 ft 4 kts 111°
2026-05-06 17:43 47.15643 -1.60557 92 ft 10 kts 40°
2026-05-06 17:43 47.15720 -1.60484 91 ft 14 kts 56°
2026-05-06 17:44 47.15671 -1.60359 93 ft 14 kts 138°
2026-05-06 17:44 47.15688 -1.60303 90 ft 7 kts 31°
2026-05-06 17:44 47.15709 -1.60274 90 ft 3 kts 44°
2026-05-06 17:44 47.15713 -1.60268 91 ft 0 kts 44°